Location: Lussas
(44.6119°N, 4.4726°E)
Time: 05:55:05
(UTC+00:00)

CENTAUR R/B - Pass Details

Date: 26 November 2020
Orbit: 750 x 1438 km, 63.4° (Epoch: 11 January)

Event Time Altitude Azimuth Distance (km) Brightness Sun altitude
Exits shadow 02:45:13 37° 36° (NE) 1,964 4.2 -43.5°
Drops below altitude 10° 02:53:06 10° 101° (E) 3,511 5.9 -42.1°
Sets 02:56:26 0° 109° (ESE) 4,514 6.6 -41.5°
